FW4628 Weather Reports


Display with metric or nautical units.
time (UTC)temp
F
wind
direction
speed
MPH
gust
MPH
rain 1hr
in
rain 24hr
in
rain mn
in
humidity
%
barometer
mb
20260509222405 76 46 0.0 0.0 0.00 0.00 0.00 35 1006.9
20260509222021 75 355 0.0 0.0 0.00 0.00 0.00 38 1006.9
20260509221857 75 355 0.0 0.0 0.00 0.00 0.00 38 1006.9
20260509221604 75 16 0.0 0.0 0.00 0.00 0.00 37 1007.0
20260509221421 75 5 0.0 0.0 0.00 0.00 0.00 38 1007.1
20260509221009 75 15 0.0 0.0 0.00 0.00 0.00 38 1007.1
20260509220926 75 35 0.0 0.0 0.00 0.00 0.00 38 1007.1
20260509220541 75 5 0.0 0.0 0.00 0.00 0.00 38 1007.1
20260509220416 75 10 0.0 0.0 0.00 0.00 0.00 38 1007.1
20260509220011 75 29 0.0 0.0 0.00 0.00 0.00 38 1007.2
20260509215913 75 57 0.0 0.0 0.00 0.00 0.00 38 1007.3
20260509215545 75 27 0.0 0.0 0.00 0.00 0.00 39 1007.2
20260509215403 75 19 0.0 0.0 0.00 0.00 0.00 38 1007.3
20260509215016 75 5 0.0 0.0 0.00 0.00 0.00 39 1007.3
20260509214925 75 15 0.0 0.0 0.00 0.00 0.00 39 1007.4
20260509214556 74 25 0.0 0.0 0.00 0.00 0.00 39 1007.4
20260509214412 75 14 0.0 0.0 0.00 0.00 0.00 39 1007.5
20260509214013 74 31 0.0 0.0 0.00 0.00 0.00 41 1007.4
20260509213907 74 9 0.0 0.0 0.00 0.00 0.00 41 1007.5
20260509213547 74 355 0.0 0.0 0.00 0.00 0.00 41 1007.5
20260509213425 74 15 0.0 0.0 0.00 0.00 0.00 41 1007.6
20260509213058 73 348 0.0 0.0 0.00 0.00 0.00 41 1007.6
20260509212917 74 46 0.0 0.0 0.00 0.00 0.00 40 1007.7
20260509212532 74 31 0.0 0.0 0.00 0.00 0.00 41 1007.7
20260509212412 74 349 0.0 0.0 0.00 0.00 0.00 41 1007.7
20260509212059 73 294 0.0 0.0 0.00 0.00 0.00 41 1007.7
20260509211903 74 304 0.0 0.0 0.00 0.00 0.00 42 1007.8
20260509211529 73 296 0.0 0.0 0.00 0.00 0.00 41 1007.8
20260509211447 74 296 0.0 0.0 0.00 0.00 0.00 41 1007.8
20260509211041 73 14 0.0 0.0 0.00 0.00 0.00 42 1007.7
20260509210918 74 288 0.0 0.0 0.00 0.00 0.00 41 1007.8
20260509210546 73 309 0.0 0.0 0.00 0.00 0.00 41 1007.8
20260509210437 74 306 0.0 0.0 0.00 0.00 0.00 42 1007.8
20260509210115 73 20 0.0 0.0 0.00 0.00 0.00 42 1007.7
20260509205907 73 13 0.0 0.0 0.00 0.00 0.00 42 1007.7
20260509205529 72 44 0.0 0.0 0.00 0.00 0.00 43 1007.8
20260509205357 73 342 0.0 0.0 0.00 0.00 0.00 44 1007.8
20260509205101 72 350 0.0 0.0 0.00 0.00 0.00 43 1007.8
20260509204919 73 347 0.0 0.0 0.00 0.00 0.00 43 1007.8
20260509204535 72 292 0.0 0.0 0.00 0.00 0.00 42 1007.9
20260509204413 72 283 0.0 0.0 0.00 0.00 0.00 42 1007.9
20260509204018 72 19 0.0 0.0 0.00 0.00 0.00 42 1007.9
20260509203914 72 15 0.0 0.0 0.00 0.00 0.00 41 1007.9
20260509203549 72 19 0.0 0.0 0.00 0.00 0.00 41 1007.9
20260509203406 73 20 0.0 0.0 0.00 0.00 0.00 42 1008.0
20260509203018 72 360 0.0 0.0 0.00 0.00 0.00 43 1008.0
20260509202925 72 281 0.0 0.0 0.00 0.00 0.00 43 1008.1
20260509202525 71 23 0.0 0.0 0.00 0.00 0.00 43 1008.0
20260509202439 71 19 0.0 0.0 0.00 0.00 0.00 43 1008.1
20260509202035 71 300 0.0 0.0 0.00 0.00 0.00 42 1008.1
20260509201907 72 5 0.0 0.0 0.00 0.00 0.00 42 1008.1
20260509201509 71 21 0.0 0.0 0.00 0.00 0.00 43 1008.2
20260509201429 71 355 0.0 0.0 0.00 0.00 0.00 43 1008.2
20260509201019 70 13 0.0 0.0 0.00 0.00 0.00 42 1008.3
20260509200857 71 22 0.0 0.0 0.00 0.00 0.00 42 1008.3
20260509200551 70 11 0.0 0.0 0.00 0.00 0.00 42 1008.4
20260509200415 71 34 0.0 0.0 0.00 0.00 0.00 42 1008.5
20260509200015 70 360 0.0 0.0 0.00 0.00 0.00 42 1008.5
20260509195907 70 34 0.0 0.0 0.00 0.00 0.00 42 1008.5
20260509195547 70 24 0.0 0.0 0.00 0.00 0.00 43 1008.4
20260509195357 70 57 0.0 0.0 0.00 0.00 0.00 42 1008.5
20260509195016 69 16 0.0 0.0 0.00 0.00 0.00 43 1008.5
20260509194921 70 317 0.0 0.0 0.00 0.00 0.00 43 1008.6
20260509194551 69 302 0.0 0.0 0.00 0.00 0.00 43 1008.5
20260509194416 69 311 0.0 0.0 0.00 0.00 0.00 42 1008.6
20260509194017 69 30 0.0 0.0 0.00 0.00 0.00 42 1008.6
20260509193907 69 9 0.0 0.0 0.00 0.00 0.00 42 1008.6
20260509193556 69 24 0.0 0.0 0.00 0.00 0.00 42 1008.7
20260509193401 69 5 0.0 0.0 0.00 0.00 0.00 42 1008.8
20260509193005 69 9 0.0 0.0 0.00 0.00 0.00 41 1008.8
20260509192919 69 40 0.0 0.0 0.00 0.00 0.00 41 1008.8
20260509192531 69 16 0.0 0.0 0.00 0.00 0.00 41 1008.8
20260509192408 69 18 0.0 0.0 0.00 0.00 0.00 41 1008.9
20260509192003 69 5 0.0 0.0 0.00 0.00 0.00 40 1008.9
20260509191901 69 360 0.0 0.0 0.00 0.00 0.00 40 1008.9
20260509191545 68 11 0.0 0.0 0.00 0.00 0.00 40 1008.8
20260509191359 69 16 0.0 0.0 0.00 0.00 0.00 40 1009.0
20260509191050 68 350 0.0 0.0 0.00 0.00 0.00 40 1009.0
20260509190859 69 5 0.0 0.0 0.00 0.00 0.00 39 1009.0
20260509190522 68 321 0.0 0.0 0.00 0.00 0.00 40 1009.0
20260509190418 68 5 0.0 0.0 0.00 0.00 0.00 40 1009.1
20260509190109 67 11 0.0 0.0 0.00 0.00 0.00 39 1009.1
20260509185912 68 11 0.0 0.0 0.00 0.00 0.00 39 1009.1
20260509185525 67 49 0.0 0.0 0.00 0.00 0.00 39 1009.2
20260509185359 67 47 0.0 0.0 0.00 0.00 0.00 39 1009.2
20260509185058 66 17 0.0 0.0 0.00 0.00 0.00 39 1009.2
20260509184913 67 5 0.0 0.0 0.00 0.00 0.00 39 1009.4
20260509184555 66 14 0.0 0.0 0.00 0.00 0.00 39 1009.3
20260509184402 67 355 0.0 0.0 0.00 0.00 0.00 38 1009.5
20260509184027 67 5 0.0 0.0 0.00 0.00 0.00 38 1009.5
20260509183947 67 16 0.0 0.0 0.00 0.00 0.00 38 1009.6
20260509183541 66 38 0.0 0.0 0.00 0.00 0.00 37 1009.5
20260509183417 67 360 0.0 0.0 0.00 0.00 0.00 37 1009.6
20260509183009 66 19 0.0 0.0 0.00 0.00 0.00 37 1009.6
20260509182914 66 271 0.0 0.0 0.00 0.00 0.00 37 1009.7
20260509182546 66 343 0.0 0.0 0.00 0.00 0.00 36 1009.7
20260509182403 66 360 0.0 0.0 0.00 0.00 0.00 36 1009.7
20260509182015 65 317 0.0 0.0 0.00 0.00 0.00 36 1009.7
20260509181925 65 348 0.0 0.0 0.00 0.00 0.00 36 1009.7
20260509181525 65 5 0.0 0.0 0.00 0.00 0.00 35 1009.7
20260509181418 65 350 0.0 0.0 0.00 0.00 0.00 35 1009.7
20260509181059 64 20 0.0 0.0 0.00 0.00 0.00 35 1009.7
20260509180911 65 30 0.0 0.0 0.00 0.00 0.00 34 1009.8
20260509180526 65 57 0.0 0.0 0.00 0.00 0.00 33 1009.7
20260509180358 65 5 0.0 0.0 0.00 0.00 0.00 32 1009.7
20260509180058 64 26 0.0 0.0 0.00 0.00 0.00 32 1009.7
20260509175920 65 53 0.0 0.0 0.00 0.00 0.00 31 1009.8
20260509175601 63 13 0.0 0.0 0.00 0.00 0.00 31 1009.8
20260509175410 64 38 0.0 0.0 0.00 0.00 0.00 31 1009.8
20260509175035 63 5 0.0 0.0 0.00 0.00 0.00 30 1009.8
20260509174859 64 10 0.0 0.0 0.00 0.00 0.00 30 1009.8
20260509174505 63 339 0.0 0.0 0.00 0.00 0.00 28 1009.8
20260509174422 63 360 0.0 0.0 0.00 0.00 0.00 28 1009.8
20260509174016 62 351 0.0 0.0 0.00 0.00 0.00 28 1009.9
20260509173854 63 34 0.0 0.0 0.00 0.00 0.00 28 1009.9
20260509173554 62 57 0.0 0.0 0.00 0.00 0.00 28 1009.9
20260509173419 63 22 0.0 0.0 0.00 0.00 0.00 27 1010.0
20260509173009 62 16 0.0 0.0 0.00 0.00 0.00 27 1010.0
20260509172923 63 26 0.0 0.0 0.00 0.00 0.00 26 1010.1
20260509172525 62 32 0.0 0.0 0.00 0.00 0.00 24 1010.1
20260509172358 62 15 0.0 0.0 0.00 0.00 0.00 23 1010.2
20260509172051 62 355 0.0 0.0 0.00 0.00 0.00 23 1010.2
20260509171941 62 27 0.0 0.0 0.00 0.00 0.00 23 1010.3
20260509171602 61 22 0.0 0.0 0.00 0.00 0.00 22 1010.4
20260509171407 62 11 0.0 0.0 0.00 0.00 0.00 21 1010.4
20260509171029 61 32 0.0 0.0 0.00 0.00 0.00 20 1010.4
20260509170901 61 355 0.0 0.0 0.00 0.00 0.00 20 1010.5
20260509170601 61 344 0.0 0.0 0.00 0.00 0.00 19 1010.5
20260509170421 61 9 0.0 0.0 0.00 0.00 0.00 18 1010.6
20260509170030 60 22 0.0 0.0 0.00 0.00 0.00 16 1010.4
20260509165919 61 58 0.0 0.0 0.00 0.00 0.00 14 1010.5
20260509165600 60 9 0.0 0.0 0.00 0.00 0.00 14 1010.5
20260509165406 60 32 0.0 0.0 0.00 0.00 0.00 15 1010.6
20260509165031 59 29 0.0 0.0 0.00 0.00 0.00 12 1010.6
20260509164927 60 19 0.0 0.0 0.00 0.00 0.00 12 1010.6
20260509164600 59 342 0.0 0.0 0.00 0.00 0.00 11 1010.6
20260509164414 60 13 0.0 0.0 0.00 0.00 0.00 11 1010.7
20260509164035 59 28 0.0 0.0 0.00 0.00 0.00 9 1010.8
20260509163906 59 360 0.0 0.0 0.00 0.00 0.00 8 1010.8
20260509163503 58 350 0.0 0.0 0.00 0.00 0.00 6 1010.8
20260509163429 59 40 0.0 0.0 0.00 0.00 0.00 5 1010.8
20260509163008 58 22 0.0 0.0 0.00 0.00 0.00 5 1010.8
20260509162858 58 22 0.0 0.0 0.00 0.00 0.00 6 1010.9
20260509162535 58 19 0.0 0.0 0.00 0.00 0.00 5 1011.1
20260509162417 58 23 0.0 0.0 0.00 0.00 0.00 5 1011.1
20260509162042 58 34 0.0 0.0 0.00 0.00 0.00 3 1011.1
20260509161902 58 18 0.0 0.0 0.00 0.00 0.00 100 1011.1
20260509161511 57 63 0.0 0.0 0.00 0.00 0.00 100 1011.2
20260509161422 58 53 0.0 0.0 0.00 0.00 0.00 100 1011.2
20260509161041 57 28 0.0 0.0 0.00 0.00 0.00 100 1011.2
20260509160913 57 348 0.0 0.0 0.00 0.00 0.00 100 1011.2
20260509160509 56 41 0.0 0.0 0.00 0.00 0.00 100 1011.2
20260509160402 57 21 0.0 0.0 0.00 0.00 0.00 100 1011.3
20260509160037 56 343 0.0 0.0 0.00 0.00 0.00 100 1011.2
20260509155919 56 5 0.0 0.0 0.00 0.00 0.00 100 1011.3
20260509155550 55 13 0.0 0.0 0.00 0.00 0.00 100 1011.2
20260509155411 56 26 0.0 0.0 0.00 0.00 0.00 100 1011.2
20260509155011 55 22 0.0 0.0 0.00 0.00 0.00 100 1011.1
20260509154900 56 41 0.0 0.0 0.00 0.00 0.00 100 1011.2
20260509154550 55 355 0.0 0.0 0.00 0.00 0.00 100 1011.2
20260509154420 55 37 0.0 0.0 0.00 0.00 0.00 100 1011.2
20260509154011 54 32 0.0 0.0 0.00 0.00 0.00 100 1011.2
20260509153909 55 17 0.0 0.0 0.00 0.00 0.00 100 1011.2
20260509153545 54 35 0.0 0.0 0.00 0.00 0.00 100 1011.2
20260509153402 54 63 0.0 0.0 0.00 0.00 0.00 100 1011.3
20260509153021 54 26 0.0 0.0 0.00 0.00 0.00 100 1011.3
20260509152928 54 45 0.0 0.0 0.00 0.00 0.00 100 1011.4
20260509152533 54 15 0.0 0.0 0.00 0.00 0.00 100 1011.4
20260509045053 62 360 0.0 0.0 0.00 0.00 0.00 55 1012.2
20260509044913 62 26 0.0 0.0 0.00 0.00 0.00 55 1012.2
20260509044529 62 13 0.0 0.0 0.00 0.00 0.00 55 1012.2
20260509044409 63 360 0.0 0.0 0.00 0.00 0.00 55 1012.2
20260509044057 62 24 0.0 0.0 0.00 0.00 0.00 55 1012.1
20260509043901 63 14 0.0 0.0 0.00 0.00 0.00 55 1012.1
20260509043527 63 19 0.0 0.0 0.00 0.00 0.00 55 1012.1
20260509043441 63 360 0.0 0.0 0.00 0.00 0.00 55 1012.1
20260509043046 63 5 0.0 0.0 0.00 0.00 0.00 55 1012.0
20260509042914 63 43 0.0 0.0 0.00 0.00 0.00 55 1012.0
20260509042517 63 19 0.0 0.0 0.00 0.00 0.00 55 1012.0
20260509042416 64 27 0.0 0.0 0.00 0.00 0.00 55 1012.0
20260509042055 63 22 0.0 0.0 0.00 0.00 0.00 55 1012.0
20260509041919 64 5 0.0 0.0 0.00 0.00 0.00 55 1012.0
20260509041535 64 330 0.0 0.0 0.00 0.00 0.00 54 1011.9
20260509041410 64 360 0.0 0.0 0.00 0.00 0.00 54 1011.9
20260509041056 64 30 0.0 0.0 0.00 0.00 0.00 54 1011.9
20260509040902 64 360 0.0 0.0 0.00 0.00 0.00 54 1011.9
20260509040528 64 10 0.0 0.0 0.00 0.00 0.00 54 1011.8
20260509040422 65 360 0.0 0.0 0.00 0.00 0.00 54 1011.8
20260509040057 64 30 0.0 0.0 0.00 0.00 0.00 54 1011.8
20260509035911 65 355 0.0 0.0 0.00 0.00 0.00 54 1011.8
20260509035528 64 22 0.0 0.0 0.00 0.00 0.00 53 1011.8
20260509035403 65 29 0.0 0.0 0.00 0.00 0.00 53 1011.8
20260509035058 64 350 0.0 0.0 0.00 0.00 0.00 53 1011.8
20260509034921 65 5 0.0 0.0 0.00 0.00 0.00 53 1011.8
20260509034539 65 27 0.0 0.0 0.00 0.00 0.00 53 1011.7
20260509034415 65 28 0.0 0.0 0.00 0.00 0.00 52 1011.6
20260509034057 65 30 0.0 0.0 0.00 0.00 0.00 52 1011.6
20260509033910 65 15 0.0 0.0 0.00 0.00 0.00 52 1011.6
20260509033532 65 18 0.0 0.0 0.00 0.00 0.00 52 1011.5
20260509033406 65 15 0.0 0.0 0.00 0.00 0.00 52 1011.5
20260509033011 65 26 0.0 0.0 0.00 0.00 0.00 52 1011.4
20260509032934 65 18 0.0 0.0 0.00 0.00 0.00 52 1011.6
20260509032526 65 19 0.0 0.0 0.00 0.00 0.00 52 1011.4
20260509032409 66 360 0.0 0.0 0.00 0.00 0.00 52 1011.4
20260509032053 65 13 0.0 0.0 0.00 0.00 0.00 51 1011.4
20260509032007 65 22 0.0 0.0 0.00 0.00 0.00 51 1011.4
20260509031927 66 30 0.0 0.0 0.00 0.00 0.00 51 1011.4
20260509031511 65 44 0.0 0.0 0.00 0.00 0.00 51 1011.3
20260509031425 66 9 0.0 0.0 0.00 0.00 0.00 51 1011.4
20260509031032 66 5 0.0 0.0 0.00 0.00 0.00 51 1011.3
20260509030902 66 27 0.0 0.0 0.00 0.00 0.00 51 1011.3
20260509030509 66 349 0.0 0.0 0.00 0.00 0.00 50 1011.3
20260509030402 66 344 0.0 0.0 0.00 0.00 0.00 50 1011.2
20260509030053 66 22 0.0 0.0 0.00 0.00 0.00 50 1011.3
20260509025909 67 18 0.0 0.0 0.00 0.00 0.00 50 1011.3
20260509025601 66 18 0.0 0.0 0.00 0.00 0.00 50 1011.2
20260509025359 67 5 0.0 0.0 0.00 0.00 0.00 49 1011.2
20260509025025 66 9 0.0 0.0 0.00 0.00 0.00 49 1011.2
20260509024923 67 45 0.0 0.0 0.00 0.00 0.00 49 1011.2
20260509024601 67 5 0.0 0.0 0.00 0.00 0.00 49 1011.2
20260509024415 67 233 0.0 0.0 0.00 0.00 0.00 49 1011.2
20260509024032 67 233 0.0 0.0 0.00 0.00 0.00 49 1011.1
20260509023907 68 233 0.0 0.0 0.00 0.00 0.00 49 1011.1
20260509023556 67 233 0.0 0.0 0.00 0.00 0.00 49 1011.1
20260509023358 68 233 0.0 0.0 0.00 0.00 0.00 49 1011.1
20260509023032 67 233 0.0 0.0 0.00 0.00 0.00 48 1011.0
20260509022919 68 233 0.0 0.0 0.00 0.00 0.00 48 1011.0
20260509022559 67 233 0.0 0.0 0.00 0.00 0.00 49 1011.0
20260509022411 68 233 0.0 0.0 0.00 0.00 0.00 49 1011.0
20260509022032 67 233 0.0 0.0 0.00 0.00 0.00 49 1011.1
20260509021903 68 233 0.0 0.0 0.00 0.00 0.00 48 1011.1
20260509021502 67 233 0.0 0.0 0.00 0.00 0.00 48 1011.0
20260509021422 68 233 0.0 0.0 0.00 0.00 0.00 48 1011.1
20260509021034 67 233 0.0 0.0 0.00 0.00 0.00 48 1011.1
20260509020914 68 233 0.0 0.0 0.00 0.00 0.00 48 1011.2
20260509020507 67 233 0.0 0.0 0.00 0.00 0.00 48 1011.1
20260509020413 68 233 0.0 0.0 0.00 0.00 0.00 48 1011.1
20260509020018 67 233 0.0 0.0 0.00 0.00 0.00 48 1011.1
20260509015936 68 233 0.0 0.0 0.00 0.00 0.00 48 1011.2
20260509015530 67 233 0.0 0.0 0.00 0.00 0.00 47 1011.1
20260509015435 68 233 0.0 0.0 0.00 0.00 0.00 47 1011.2
20260509015044 67 233 0.0 0.0 0.00 0.00 0.00 47 1011.1
20260509014920 68 232 0.0 0.0 0.00 0.00 0.00 48 1011.1
20260509014557 67 232 0.0 0.0 0.00 0.00 0.00 48 1011.1
20260509014408 68 233 0.0 0.0 0.00 0.00 0.00 48 1011.1
20260509014027 67 233 0.0 0.0 0.00 0.00 0.00 48 1011.1
20260509013928 67 233 0.0 0.0 0.00 0.00 0.00 48 1011.1
20260509013551 67 233 0.0 0.0 0.00 0.00 0.00 48 1011.1
20260509013426 67 232 0.0 0.0 0.00 0.00 0.00 48 1011.2
20260509013058 67 233 0.0 0.0 0.00 0.00 0.00 48 1011.1
20260509012905 68 232 0.0 0.0 0.00 0.00 0.00 48 1011.2
20260509012559 67 232 0.0 0.0 0.00 0.00 0.00 48 1011.2
20260509012400 68 233 0.0 0.0 0.00 0.00 0.00 47 1011.3
20260509012031 68 233 0.0 0.0 0.00 0.00 0.00 47 1011.2
20260509011921 68 233 0.0 0.0 0.00 0.00 0.00 47 1011.3
20260509011601 68 227 0.0 0.0 0.00 0.00 0.00 47 1011.3
20260509011411 68 227 0.0 0.0 0.00 0.00 0.00 47 1011.3
20260509011037 68 227 0.0 0.0 0.00 0.00 0.00 46 1011.3
20260509010933 69 227 0.0 0.0 0.00 0.00 0.00 46 1011.4
20260509010549 68 226 0.0 0.0 0.00 0.00 0.00 46 1011.3
20260509010404 69 239 0.0 0.0 0.00 0.00 0.00 46 1011.3
20260509010031 68 226 0.0 0.0 0.00 0.00 0.00 46 1011.3
20260509005923 69 225 0.0 0.0 0.00 0.00 0.00 46 1011.4
20260509005538 68 36 0.0 0.0 0.00 0.00 0.00 46 1011.3
20260509005357 69 80 0.0 0.0 0.00 0.00 0.00 46 1011.4
20260509005007 68 80 0.0 0.0 0.00 0.00 0.00 46 1011.3
20260509004919 68 80 0.0 0.0 0.00 0.00 0.00 46 1011.4
20260509004538 68 80 0.0 0.0 0.00 0.00 0.00 46 1011.4
20260509004411 68 80 0.0 0.0 0.00 0.00 0.00 46 1011.4
20260509004010 67 57 0.0 0.0 0.00 0.00 0.00 46 1011.4
20260509003940 68 19 0.0 0.0 0.00 0.00 0.00 46 1011.5
20260509003515 68 360 0.0 0.0 0.00 0.00 0.00 45 1011.5
20260509003411 69 5 0.0 0.0 0.00 0.00 0.00 45 1011.4
20260509003045 69 14 0.0 0.0 0.00 0.00 0.00 45 1011.4
20260509002906 69 200 0.0 0.0 0.00 0.00 0.00 45 1011.4
20260509002518 68 275 0.0 0.0 0.00 0.00 0.00 45 1011.4
20260509002426 69 275 0.0 0.0 0.00 0.00 0.00 45 1011.4
20260509002045 68 275 0.0 0.0 0.00 0.00 0.00 45 1011.4
20260509001916 69 261 0.0 0.0 0.00 0.00 0.00 46 1011.5
20260509001505 68 41 0.0 0.0 0.00 0.00 0.00 45 1011.5
20260509001407 69 22 0.0 0.0 0.00 0.00 0.00 45 1011.5
20260509001039 68 254 0.0 0.0 0.00 0.00 0.00 46 1011.5
20260509000858 68 254 0.0 0.0 0.00 0.00 0.00 46 1011.6
20260509000521 68 232 0.0 0.0 0.00 0.00 0.00 46 1011.5
20260509000425 68 236 0.0 0.0 0.00 0.00 0.00 46 1011.6
20260509000029 68 212 0.0 0.0 0.00 0.00 0.00 46 1011.5
20260508235924 68 217 0.0 0.0 0.00 0.00 0.00 46 1011.6
20260508235501 68 213 0.0 0.0 0.00 0.00 0.00 45 1011.6
20260508235419 68 235 0.0 0.0 0.00 0.00 0.00 45 1011.7
20260508235037 68 227 0.0 0.0 0.00 0.00 0.00 46 1011.7
20260508234909 68 250 0.0 0.0 0.00 0.00 0.00 46 1011.6
20260508234606 68 236 0.0 0.0 0.00 0.00 0.00 46 1011.5
20260508234402 68 246 0.0 0.0 0.00 0.00 0.00 46 1011.6
20260508234033 67 178 0.0 0.0 0.00 0.00 0.00 46 1011.5
20260508233921 68 178 0.0 0.0 0.00 0.00 0.00 46 1011.6
20260508233505 67 212 0.0 0.0 0.00 0.00 0.00 46 1011.6
20260508233417 68 204 0.0 0.0 0.00 0.00 0.00 46 1011.6
20260508233019 67 216 0.0 0.0 0.00 0.00 0.00 46 1011.6
20260508232915 68 211 0.0 0.0 0.00 0.00 0.00 46 1011.7
20260508232559 67 178 0.0 0.0 0.00 0.00 0.00 46 1011.7
20260508232408 67 232 0.0 0.0 0.00 0.00 0.00 46 1011.7
20260508232031 66 235 0.0 0.0 0.00 0.00 0.00 47 1011.7
20260508231935 67 202 0.0 0.0 0.00 0.00 0.00 47 1011.7
20260508231544 66 120 0.0 0.0 0.00 0.00 0.00 47 1011.6
20260508231409 66 110 0.0 0.0 0.00 0.00 0.00 46 1011.7
20260508231012 66 109 0.0 0.0 0.00 0.00 0.00 46 1011.7
20260508230909 67 109 0.0 0.0 0.00 0.00 0.00 46 1011.7
20260508230520 67 198 0.0 0.0 0.00 0.00 0.00 45 1011.7
20260508230430 67 198 0.0 0.0 0.00 0.00 0.00 46 1011.8
20260508230041 67 238 0.0 0.0 0.00 0.00 0.00 46 1011.7
20260508225919 68 217 0.0 0.0 0.00 0.00 0.00 45 1011.7
20260508225549 67 247 0.0 0.0 0.00 0.00 0.00 46 1011.7
20260508225406 67 247 0.0 0.0 0.00 0.00 0.00 46 1011.8
20260508225025 66 229 0.0 0.0 0.00 0.00 0.00 45 1011.8
20260508224913 67 229 0.0 0.0 0.00 0.00 0.00 46 1011.8
20260508224548 66 245 0.0 0.0 0.00 0.00 0.00 46 1011.8
20260508224406 66 316 0.0 0.0 0.00 0.00 0.00 46 1011.8
20260508224014 66 238 0.0 0.0 0.00 0.00 0.00 46 1011.7
20260508223928 66 215 0.0 0.0 0.00 0.00 0.00 46 1011.8
20260508223529 65 208 0.0 0.0 0.00 0.00 0.00 46 1011.8
20260508223405 66 213 0.0 0.0 0.00 0.00 0.00 46 1011.9
20260508223059 66 230 0.0 0.0 0.00 0.00 0.00 46 1011.9
20260508222924 66 192 0.0 0.0 0.00 0.00 0.00 46 1011.9